Flag for Canada Weather past 2 weeks in Fort Simpson, Northwest Territories, Canada

Now
54 °F

Clear.


Feels Like: 52 °F
Forecast: 53 / 72 °F
Wind: 6 mph from East

Location: Fort Simpson

Current Time: Aug 23, 2014 at 6:03:11 AM

Latest Report: Aug 23, 2014 at 5:00 AM


Visibility: 12 mi

Pressure: 30.19 "Hg

Humidity: 67%

Dew point: 43 °F

Location of Fort SimpsonLocation

Historic Weather in Fort Simpson — Graph

°F

Fort Simpson temperature yesterday

Maximum temperature yesterday: 73 °F (at 5:00 PM)
Minimum temperature yesterday: 46 °F (at 12:00 AM)
Average temperature yesterday: 59 °F

Past Weeks' High & Low Weather Summary

 TemperatureHumidityPressure
High102 °F (Aug 12, 8:00 PM)100% (Aug 8, 6:00 AM)30.30 "Hg (Aug 8, 6:00 AM)
Low32 °F (Aug 21, 7:00 AM)11% (Aug 12, 8:00 PM)29.56 "Hg (Aug 18, 8:00 AM)
Average63 °F62%29.89 "Hg
* Reported Aug 8 5:00 AM — Aug 23 5:00 AM, Fort Simpson, Weather by CustomWeather, © 2014

Note: Actual official high and low records may vary slightly from our data, if they occured in-between our weather recording intervals... More about our weather records

Advertising

Fort Simpson weather history for previous 24 hours

 ConditionsComfort  
Time TempWeatherWind HumidityBarometerVisibility
5:00 AM
Aug 23
54 °FClear.6 mph67%30.19 "Hg12 mi
4:00 AM54 °FClear.5 mph77%30.19 "Hg12 mi
3:00 AM54 °FClear.3 mph77%30.18 "Hg12 mi
2:00 AM55 °FClear.5 mph72%30.19 "Hg12 mi
1:00 AM59 °FClear.6 mph63%30.18 "Hg15 mi
12:00 AM61 °FPassing clouds.5 mph59%30.19 "Hg15 mi
11:00 PM
Aug 22
63 °FPassing clouds.6 mph56%30.19 "Hg15 mi
10:00 PM64 °FPassing clouds.3 mph56%30.18 "Hg15 mi
9:00 PM70 °FPassing clouds.3 mph43%30.18 "Hg15 mi
8:00 PM72 °FPassing clouds.3 mph41%30.19 "Hg15 mi
7:00 PM73 °FPassing clouds.3 mph36%30.19 "Hg15 mi
6:00 PM73 °FPassing clouds.No wind38%30.20 "Hg15 mi
5:00 PM73 °FPassing clouds.2 mph38%30.21 "Hg15 mi
4:00 PM72 °FPassing clouds.6 mph33%30.23 "Hg12 mi
3:00 PM70 °FPassing clouds.8 mph40%30.24 "Hg6 mi
2:00 PM68 °FSunny.6 mph40%30.25 "Hg4 mi
1:00 PM64 °FSunny.7 mph43%30.27 "Hg4 mi
12:00 PM63 °FSunny.6 mph45%30.27 "Hg4 mi
11:00 AM59 °FSunny.7 mph48%30.29 "Hg3 mi
10:00 AM54 °FPassing clouds.5 mph58%30.29 "Hg2 mi
9:00 AM50 °FPassing clouds.7 mph62%30.29 "Hg2 mi
8:00 AM46 °FPassing clouds.6 mph66%30.30 "Hg2 mi
7:00 AM46 °FPassing clouds.7 mph66%30.30 "Hg2 mi
6:00 AM46 °FPassing clouds.6 mph66%30.30 "Hg3 mi
Weather by CustomWeather, © 2014

See weather overviewHow to use our weather pages